Home   Weather   Cartagena   Past weeks

Flag for Colombia Past Weather in Cartagena, Colombia — Yesterday and Last 2 Weeks

Now
84 °F

Haze.


Feels Like: 98 °F
Forecast: 83 / 92 °F
Wind: 3 mph from Southwest

Location: Cartagena / Rafael Nunez

Current Time: Apr 28, 2017 at 7:43:10 am

Latest Report: Apr 28, 2017 at 7:00 am


Visibility: 3 mi

Pressure: 29.80 "Hg

Humidity: 89%

Dew Point: 81 °F

Location of CartagenaLocation

Past Weather in Cartagena — Graph

°F

Cartagena Temperature Yesterday

Maximum temperature yesterday: 90 °F (at 10:00 am)
Minimum temperature yesterday: 81 °F (at 2:00 am)
Average temperature yesterday: 86 °F

High & Low Weather Summary for the Past Weeks

 TemperatureHumidityPressure
High91 °F (Apr 16, 1:00 pm)100% (Apr 23, 7:00 am)29.93 "Hg (Apr 23, 7:00 am)
Low77 °F (Apr 21, 4:00 am)62% (Apr 19, 5:00 pm)26.73 "Hg (Apr 27, 5:00 pm)
Average84 °F83%29.79 "Hg
* Reported Apr 13 6:00 am — Apr 28 6:00 am, Cartagena, Weather by CustomWeather, © 2017

Note: Actual official high and low records may vary slightly from our data, if they occured in-between our weather recording intervals... More about our weather records

Advertising

Cartagena Weather History for the Previous 24 Hours

Scroll right to see more
 ConditionsComfort  
Time TempWeatherWind HumidityBarometerVisibility
6:00 am
Fri, Apr 28
81 °FPartly sunny.No wind94%29.78 "Hg4 mi
5:00 am81 °FPassing clouds.5 mph94%29.78 "Hg5 mi
4:00 am81 °FPassing clouds.5 mph94%29.77 "HgN/A
3:00 am81 °FPassing clouds.5 mph89%29.76 "HgN/A
2:00 am81 °FPassing clouds.5 mph94%29.78 "HgN/A
1:00 am82 °FPassing clouds.5 mph89%29.79 "HgN/A
12:00 am82 °FPassing clouds.7 mph89%29.80 "HgN/A
11:00 pm
Thu, Apr 27
82 °FPassing clouds.7 mph89%29.81 "HgN/A
10:00 pm82 °FPassing clouds.7 mph89%29.80 "HgN/A
9:00 pm82 °FPassing clouds.9 mph89%29.80 "HgN/A
8:00 pm82 °FPassing clouds.9 mph89%29.77 "HgN/A
7:00 pm84 °FPassing clouds.9 mph84%29.75 "HgN/A
6:00 pm86 °FScattered clouds.9 mph84%29.75 "HgN/A
5:00 pm86 °FBroken clouds.10 mph84%26.73 "HgN/A
4:00 pm88 °FScattered clouds.9 mph79%29.75 "HgN/A
3:00 pm88 °FDrizzle. Partly sunny.8 mph79%29.76 "HgN/A
2:00 pm90 °FScattered showers. Partly sunny.9 mph79%29.79 "HgN/A
1:20 pm90 °FThunderstorms. Partly sunny.10 mph79%29.80 "HgN/A
1:00 pm90 °FOvercast.10 mph79%29.81 "HgN/A
12:00 pm88 °FPartly sunny.9 mph79%29.84 "HgN/A
11:00 am90 °FPartly sunny.8 mph79%29.84 "HgN/A
10:00 am90 °FPartly sunny.8 mph79%29.86 "Hg6 mi
9:00 am88 °FScattered clouds.6 mph79%29.86 "Hg5 mi
8:00 am86 °FScattered clouds.2 mph89%29.85 "Hg6 mi
Weather by CustomWeather, © 2017

See weather overviewHow to use our weather pages